GW6929 Weather Reports


time (UTC)temp
C
wind
direction
speed
KPH
gust
KPH
rain 1hr
cm
rain 24hr
cm
rain mn
cm
humidity
%
barometer
mb
20260502170503 30 341 4.8 14.5 0.00 0.00 0.00 26 1029.0
20260502164004 29 342 4.8 17.7 0.00 0.00 0.00 27 1028.7
20260502163525 28 315 4.8 12.9 0.00 0.00 0.00 28 1029.0
20260502163004 28 322 4.8 12.9 0.00 0.00 0.00 27 1029.0
20260502162504 28 335 6.4 14.5 0.00 0.00 0.00 26 1028.7
20260502162003 28 331 6.4 14.5 0.00 0.00 0.00 27 1029.0
20260502161504 28 326 4.8 11.3 0.00 0.00 0.00 27 1028.7
20260502161003 28 326 4.8 9.7 0.00 0.00 0.00 27 1028.7
20260502160503 28 330 3.2 9.7 0.00 0.00 0.00 27 1028.7
20260502152003 27 341 3.2 9.7 0.00 0.00 0.00 25 1028.3
20260502151524 27 343 3.2 9.7 0.00 0.00 0.00 24 1028.3
20260502151003 26 1 4.8 14.5 0.00 0.00 0.00 23 1028.0
20260502150503 26 343 3.2 14.5 0.00 0.00 0.00 23 1028.3
20260502130507 21 275 3.2 6.4 0.00 0.00 0.00 26 1026.6
20260502123507 21 297 1.6 6.4 0.00 0.00 0.00 27 1026.2
20260502123028 21 261 3.2 6.4 0.00 0.00 0.00 27 1026.2
20260502122507 21 247 1.6 6.4 0.00 0.00 0.00 27 1026.2
20260502122007 21 256 3.2 6.4 0.00 0.00 0.00 27 1026.2
20260502121528 21 236 1.6 6.4 0.00 0.00 0.00 28 1026.2
20260502120507 21 319 3.2 6.4 0.00 0.00 0.00 28 1025.9
20260502115507 21 296 3.2 6.4 0.00 0.00 0.00 27 1026.2
20260502115007 20 258 3.2 9.7 0.00 0.00 0.00 29 1026.2
20260502114507 20 231 3.2 9.7 0.00 0.00 0.00 30 1026.2
20260502113507 20 232 3.2 6.4 0.00 0.00 0.00 30 1026.2
20260502113007 20 219 1.6 6.4 0.00 0.00 0.00 30 1025.9
20260502112507 21 242 1.6 6.4 0.00 0.00 0.00 28 1025.9
20260502112007 21 276 1.6 6.4 0.00 0.00 0.00 29 1025.9
20260502111507 21 353 1.6 4.8 0.00 0.00 0.00 28 1026.2
20260502111007 20 62 1.6 4.8 0.00 0.00 0.00 29 1025.9
20260502110507 20 96 1.6 4.8 0.00 0.00 0.00 29 1025.9
20260502105507 20 342 1.6 4.8 0.00 0.00 0.00 28 1025.9
20260502105007 20 78 3.2 6.4 0.00 0.00 0.00 28 1025.9
20260502104528 21 59 3.2 6.4 0.00 0.00 0.00 28 1025.9
20260502104028 21 24 3.2 6.4 0.00 0.00 0.00 27 1025.9
20260502103506 21 22 3.2 6.4 0.00 0.00 0.00 26 1025.9
20260502103007 22 75 3.2 6.4 0.00 0.00 0.00 25 1025.9
20260502102507 22 173 1.6 6.4 0.00 0.00 0.00 25 1025.5
20260502102006 22 334 1.6 6.4 0.00 0.00 0.00 25 1025.5
20260502101506 22 271 1.6 6.4 0.00 0.00 0.00 24 1025.9
20260502101006 23 243 1.6 6.4 0.00 0.00 0.00 24 1025.5
20260502100506 22 261 1.6 8.0 0.00 0.00 0.00 24 1025.5
20260502091506 23 281 1.6 3.2 0.00 0.00 0.00 24 1025.2
20260502091027 23 286 1.6 3.2 0.00 0.00 0.00 24 1025.5
20260502090527 23 284 1.6 3.2 0.00 0.00 0.00 23 1025.5
20260502071506 21 67 1.6 4.8 0.00 0.00 0.00 34 1024.8
20260502071006 21 58 1.6 4.8 0.00 0.00 0.00 32 1024.8
20260502070506 21 58 1.6 3.2 0.00 0.00 0.00 32 1024.5
20260502070027 21 65 1.6 3.2 0.00 0.00 0.00 29 1024.5
20260502065527 22 82 0.0 3.2 0.00 0.00 0.00 28 1024.5
20260502065027 22 88 1.6 6.4 0.00 0.00 0.00 28 1024.5
20260502064527 22 98 1.6 6.4 0.00 0.00 0.00 28 1024.5
20260502064006 22 98 1.6 6.4 0.00 0.00 0.00 28 1024.5
20260502063506 22 97 1.6 4.8 0.00 0.00 0.00 30 1024.8
20260502063006 22 96 1.6 6.4 0.00 0.00 0.00 29 1024.8
20260502062527 22 100 1.6 6.4 0.00 0.00 0.00 28 1024.5
20260502062027 22 108 3.2 8.0 0.00 0.00 0.00 27 1024.5
20260502061506 23 110 3.2 8.0 0.00 0.00 0.00 27 1024.5
20260502061006 22 117 3.2 6.4 0.00 0.00 0.00 26 1024.8
20260502060506 23 114 1.6 6.4 0.00 0.00 0.00 27 1024.8
20260502060006 23 97 3.2 6.4 0.00 0.00 0.00 29 1024.5
20260502055506 23 105 3.2 8.0 0.00 0.00 0.00 25 1024.5
20260502055006 22 112 3.2 8.0 0.00 0.00 0.00 27 1024.5
20260502054506 21 97 1.6 4.8 0.00 0.00 0.00 31 1024.5
20260502054006 21 74 0.0 3.2 0.00 0.00 0.00 39 1024.5
20260502053527 21 57 0.0 1.6 0.00 0.00 0.00 37 1024.8
20260502053006 21 44 0.0 1.6 0.00 0.00 0.00 37 1024.5
20260502052506 21 119 0.0 3.2 0.00 0.00 0.00 39 1024.1
20260502052006 21 120 0.0 3.2 0.00 0.00 0.00 34 1024.5
20260502051506 21 108 0.0 3.2 0.00 0.00 0.00 36 1024.5
20260502051006 22 107 0.0 3.2 0.00 0.00 0.00 34 1024.5
20260502050505 22 116 1.6 4.8 0.00 0.00 0.00 37 1024.1
20260502050006 23 119 1.6 4.8 0.00 0.00 0.00 31 1024.5
20260502045505 23 120 1.6 4.8 0.00 0.00 0.00 26 1024.5
20260502045026 23 109 1.6 4.8 0.00 0.00 0.00 27 1024.1
20260502044526 23 98 1.6 3.2 0.00 0.00 0.00 26 1024.1
20260502044006 23 104 0.0 3.2 0.00 0.00 0.00 26 1024.1
20260502043505 23 99 0.0 3.2 0.00 0.00 0.00 25 1024.1
20260502043006 23 86 0.0 3.2 0.00 0.00 0.00 23 1023.8
20260502042506 23 98 0.0 1.6 0.00 0.00 0.00 24 1024.1
20260502042026 23 94 0.0 1.6 0.00 0.00 0.00 26 1023.8
20260502041526 23 93 0.0 1.6 0.00 0.00 0.00 27 1023.8
20260502041005 23 81 0.0 1.6 0.00 0.00 0.00 27 1023.8
20260502040505 23 75 0.0 1.6 0.00 0.00 0.00 26 1023.8
20260502040026 24 75 0.0 1.6 0.00 0.00 0.00 28 1023.4
20260502035505 24 64 0.0 1.6 0.00 0.00 0.00 29 1023.4
20260502035005 24 104 0.0 1.6 0.00 0.00 0.00 27 1023.4
20260502034506 24 108 0.0 1.6 0.00 0.00 0.00 28 1023.4
20260502034005 24 103 0.0 1.6 0.00 0.00 0.00 29 1023.4
20260502033505 25 117 0.0 1.6 0.00 0.00 0.00 28 1023.4
20260502033005 25 124 0.0 1.6 0.00 0.00 0.00 31 1023.1
20260502032505 25 0 0.0 0.0 0.00 0.00 0.00 27 1023.4
20260502032005 25 83 0.0 1.6 0.00 0.00 0.00 26 1023.4
20260502031526 26 118 0.0 1.6 0.00 0.00 0.00 26 1023.1
20260502031005 26 153 0.0 1.6 0.00 0.00 0.00 25 1023.1
20260502030505 26 188 0.0 1.6 0.00 0.00 0.00 26 1023.1
20260502030005 27 0 0.0 1.6 0.00 0.00 0.00 26 1023.1
20260502025505 27 76 0.0 1.6 0.00 0.00 0.00 25 1022.7
20260502025005 27 85 0.0 1.6 0.00 0.00 0.00 22 1022.7
20260502024526 27 103 0.0 1.6 0.00 0.00 0.00 21 1022.7
20260502024005 28 87 0.0 3.2 0.00 0.00 0.00 21 1022.7
20260502023505 28 85 0.0 3.2 0.00 0.00 0.00 21 1022.7
20260502023005 28 110 0.0 4.8 0.00 0.00 0.00 21 1022.7
20260502022505 28 117 1.6 4.8 0.00 0.00 0.00 21 1022.7
20260502022005 29 114 1.6 4.8 0.00 0.00 0.00 20 1022.7
20260502021505 29 112 0.0 4.8 0.00 0.00 0.00 19 1022.7
20260502021026 29 122 1.6 4.8 0.00 0.00 0.00 19 1022.7
20260502020505 29 124 1.6 4.8 0.00 0.00 0.00 19 1022.4
20260502020005 30 114 1.6 6.4 0.00 0.00 0.00 19 1022.7
20260502015505 30 106 3.2 9.7 0.00 0.00 0.00 19 1022.4
20260502015005 30 119 3.2 9.7 0.00 0.00 0.00 19 1022.4
20260502014526 30 136 3.2 9.7 0.00 0.00 0.00 21 1022.4
20260502014005 30 132 3.2 9.7 0.00 0.00 0.00 22 1022.4
20260502013505 30 119 3.2 8.0 0.00 0.00 0.00 21 1022.7
20260502013005 30 129 4.8 11.3 0.00 0.00 0.00 21 1022.4
20260502012505 30 132 3.2 11.3 0.00 0.00 0.00 20 1022.4
20260502012005 31 121 1.6 9.7 0.00 0.00 0.00 20 1022.4
20260502011505 31 117 3.2 9.7 0.00 0.00 0.00 18 1022.4
20260502011005 31 105 3.2 8.0 0.00 0.00 0.00 18 1022.4
20260502010505 31 117 3.2 8.0 0.00 0.00 0.00 19 1022.4
20260502010005 32 138 3.2 8.0 0.00 0.00 0.00 20 1022.4
20260502005505 32 134 3.2 8.0 0.00 0.00 0.00 19 1022.4
20260502005005 32 130 3.2 11.3 0.00 0.00 0.00 18 1022.7
20260502004505 32 116 3.2 11.3 0.00 0.00 0.00 19 1022.4
20260502004005 32 125 3.2 8.0 0.00 0.00 0.00 19 1022.4
20260502003505 32 123 3.2 11.3 0.00 0.00 0.00 18 1022.4
20260502003026 32 120 3.2 11.3 0.00 0.00 0.00 18 1022.7
20260502002505 32 132 3.2 8.0 0.00 0.00 0.00 18 1022.7
20260502002005 32 127 3.2 9.7 0.00 0.00 0.00 18 1022.4
20260502001505 32 126 3.2 9.7 0.00 0.00 0.00 18 1022.7
20260502001005 32 135 3.2 9.7 0.00 0.00 0.00 18 1022.7
20260502000505 33 145 3.2 6.4 0.00 0.00 0.00 18 1022.7
20260502000005 33 127 3.2 8.0 0.00 0.00 0.00 17 1022.7
20260501235505 33 120 3.2 8.0 0.00 0.00 0.00 18 1022.7
20260501235005 32 128 3.2 9.7 0.00 0.00 0.00 17 1022.7
20260501234504 32 128 4.8 11.3 0.00 0.00 0.00 18 1022.7
20260501234005 33 130 3.2 11.3 0.00 0.00 0.00 18 1022.7
20260501233504 33 131 3.2 11.3 0.00 0.00 0.00 18 1022.7
20260501233026 33 125 3.2 11.3 0.00 0.00 0.00 17 1022.7
20260501232525 33 92 1.6 8.0 0.00 0.00 0.00 17 1022.7
20260501232004 33 72 1.6 8.0 0.00 0.00 0.00 18 1022.7
20260501231525 33 125 1.6 8.0 0.00 0.00 0.00 17 1023.1
20260501231004 33 135 1.6 9.7 0.00 0.00 0.00 18 1022.7
20260501230525 32 135 3.2 9.7 0.00 0.00 0.00 19 1023.1
20260501230004 32 138 3.2 11.3 0.00 0.00 0.00 18 1022.7
20260501225504 32 124 3.2 12.9 0.00 0.00 0.00 18 1023.1
20260501225025 32 105 1.6 12.9 0.00 0.00 0.00 18 1023.1
20260501224505 32 108 1.6 9.7 0.00 0.00 0.00 18 1023.4
20260501224005 32 130 1.6 9.7 0.00 0.00 0.00 18 1023.4
20260501223505 32 129 1.6 9.7 0.00 0.00 0.00 18 1023.4
20260501223004 32 124 3.2 9.7 0.00 0.00 0.00 19 1023.4
20260501222504 32 126 1.6 9.7 0.00 0.00 0.00 19 1023.4
20260501222005 32 143 3.2 11.3 0.00 0.00 0.00 19 1023.8
20260501221504 32 142 3.2 11.3 0.00 0.00 0.00 18 1023.8
20260501221004 32 136 3.2 9.7 0.00 0.00 0.00 18 1023.8
20260501220504 32 142 3.2 9.7 0.00 0.00 0.00 21 1023.8
20260501220004 32 158 3.2 9.7 0.00 0.00 0.00 18 1024.1
20260501215504 32 157 3.2 11.3 0.00 0.00 0.00 19 1024.1
20260501215004 32 147 3.2 11.3 0.00 0.00 0.00 20 1024.1
20260501214504 32 170 3.2 8.0 0.00 0.00 0.00 21 1024.1
20260501214004 32 314 1.6 6.4 0.00 0.00 0.00 21 1024.1
20260501213525 32 79 3.2 9.7 0.00 0.00 0.00 21 1024.5
20260501213025 31 146 3.2 9.7 0.00 0.00 0.00 23 1024.5
20260501212525 31 120 3.2 8.0 0.00 0.00 0.00 24 1024.8
20260501212004 31 105 3.2 8.0 0.00 0.00 0.00 24 1024.5
20260501211504 31 189 3.2 8.0 0.00 0.00 0.00 24 1024.8
20260501211004 31 185 3.2 8.0 0.00 0.00 0.00 25 1024.5
20260501210525 31 168 3.2 8.0 0.00 0.00 0.00 25 1024.8
20260501210004 31 155 3.2 9.7 0.00 0.00 0.00 24 1024.8
20260501205525 31 186 3.2 9.7 0.00 0.00 0.00 26 1024.8
20260501205004 31 171 1.6 9.7 0.00 0.00 0.00 23 1024.8
20260501204504 31 162 3.2 8.0 0.00 0.00 0.00 24 1025.2
20260501204004 31 229 1.6 8.0 0.00 0.00 0.00 25 1025.2
20260501203504 31 229 1.6 11.3 0.00 0.00 0.00 23 1025.2
20260501203004 31 141 1.6 11.3 0.00 0.00 0.00 24 1025.2
20260501202504 31 117 1.6 11.3 0.00 0.00 0.00 24 1025.5
20260501202004 31 128 3.2 9.7 0.00 0.00 0.00 22 1025.2
20260501201504 30 123 1.6 9.7 0.00 0.00 0.00 24 1025.5
20260501201025 31 200 1.6 8.0 0.00 0.00 0.00 25 1025.5
20260501200504 30 158 1.6 8.0 0.00 0.00 0.00 26 1025.2
20260501200004 31 131 1.6 8.0 0.00 0.00 0.00 24 1025.5
20260501195504 30 102 1.6 8.0 0.00 0.00 0.00 23 1025.5
20260501195004 30 147 1.6 8.0 0.00 0.00 0.00 25 1025.5
20260501194504 31 163 1.6 8.0 0.00 0.00 0.00 24 1025.5
20260501194004 31 36 1.6 6.4 0.00 0.00 0.00 24 1025.9
20260501193504 30 97 3.2 11.3 0.00 0.00 0.00 27 1025.9
20260501193004 29 127 3.2 11.3 0.00 0.00 0.00 26 1025.9
20260501192525 30 163 3.2 8.0 0.00 0.00 0.00 25 1025.9
20260501192025 30 155 3.2 8.0 0.00 0.00 0.00 23 1026.2
20260501191504 30 127 1.6 8.0 0.00 0.00 0.00 24 1026.2
20260501191004 30 158 1.6 8.0 0.00 0.00 0.00 24 1026.2
20260501190504 29 146 1.6 8.0 0.00 0.00 0.00 27 1026.6
20260501190004 30 19 1.6 8.0 0.00 0.00 0.00 27 1026.2
20260501185525 30 356 1.6 8.0 0.00 0.00 0.00 26 1026.2
20260501185004 29 72 1.6 6.4 0.00 0.00 0.00 26 1026.2
20260501184504 29 152 1.6 6.4 0.00 0.00 0.00 26 1026.6
20260501184003 29 106 1.6 6.4 0.00 0.00 0.00 27 1026.9
20260501183504 28 104 3.2 11.3 0.00 0.00 0.00 26 1026.6
20260501183004 28 161 3.2 11.3 0.00 0.00 0.00 27 1026.9
20260501182503 28 170 1.6 9.7 0.00 0.00 0.00 27 1026.9
20260501182004 28 146 1.6 9.7 0.00 0.00 0.00 26 1026.9
20260501181503 28 146 3.2 9.7 0.00 0.00 0.00 26 1026.9
20260501181024 29 96 3.2 9.7 0.00 0.00 0.00 27 1027.3
20260501180503 28 60 1.6 6.4 0.00 0.00 0.00 27 1026.9
20260501180004 28 116 1.6 6.4 0.00 0.00 0.00 27 1027.3
20260501175504 28 110 1.6 6.4 0.00 0.00 0.00 27 1027.3
20260501175003 28 98 1.6 6.4 0.00 0.00 0.00 28 1027.3
20260501174503 28 134 1.6 6.4 0.00 0.00 0.00 28 1027.3
20260501174003 27 249 1.6 8.0 0.00 0.00 0.00 29 1027.3
20260501173504 27 179 1.6 8.0 0.00 0.00 0.00 29 1027.3
20260501173003 27 114 3.2 9.7 0.00 0.00 0.00 29 1027.6
20260501172503 27 40 3.2 9.7 0.00 0.00 0.00 28 1027.3